Sandberg, CA

2:21 AM PDT on April 27, 2018 (GMT -0700)
Sandberg

Weather History for KSDB - October, 2013

Change the Weather History Date:

Tuesday, October 29, 2013

  Actual Average Record
Temperature  
Mean Temperature 44 °F 55 °F  
Max Temperature 50 °F 63 °F 83 °F (2017)
Min Temperature 38 °F 48 °F 21 °F (1971)
Degree Days  
Heating Degree Days 21 10  
Month to date heating degree days 146 201  
Since 1 July heating degree days 193 279  
Cooling Degree Days 0 0  
Month to date cooling degree days 51 48  
Year to date cooling degree days 1561 994  
Moisture  
Dew Point 36 °F    
Average Humidity 79    
Maximum Humidity 92    
Minimum Humidity 65    
Precipitation  
Precipitation 0.00 in 0.03 in 0.81 in (1996)
Month to date precipitation 0.23 0.55  
Year to date precipitation 3.22 9.25  
Since 1 July precipitation 0.31  
Sea Level Pressure  
Sea Level Pressure 29.93 in    
Wind  
Wind Speed 9 mph (WNW)    
Max Wind Speed 18 mph    
Max Gust Speed 22 mph    
Visibility 6 miles    
Events Fog    
T = Trace of Precipitation, MM = Missing Value Source: NWS Daily Summary

Daily Weather History Graph

Daily Weather History Graph

Search for Another Location

Airport or City:

Astronomy

Oct. 29, 2013 Rise Set
Actual Time 7:13 AM PDT 6:03 PM PDT
Civil Twilight 6:47 AM PDT 6:29 PM PDT
Nautical Twilight 6:17 AM PDT 6:59 PM PDT
Astronomical Twilight 5:47 AM PDT 7:28 PM PDT
Moon 2:19 AM PDT (10/29) 3:09 PM PDT (10/29)
Length of Visible Light 11h 42m
Length of Day
10h 50m
Waning Crescent, 24% of the Moon is Illuminated
Oct 29
Waning Crescent
Nov 3
New
Nov 9
First Quarter
Nov 17
Full
Nov 25
Last Quarter

Hourly Weather History & Observations

Time (PDT) Temp. Windchill Dew Point Humidity Pressure Visibility Wind Dir Wind Speed Gust Speed Precip Events Conditions
12:28 AM 39.2 °F 33.0 °F 37.4 °F 93% 29.91 in 0.2 mi South 9.2 mph - N/A Fog Fog
12:34 AM 39.2 °F 35.0 °F 37.4 °F 93% 29.91 in 0.5 mi SSW 5.8 mph - N/A Fog Fog
12:43 AM 39.2 °F 33.0 °F 37.4 °F 93% 29.91 in 0.2 mi South 9.2 mph - N/A Fog Fog
12:48 AM 39.9 °F 33.9 °F 37.0 °F 89% 29.85 in 0.2 mi South 9.2 mph - N/A Fog Fog
1:22 AM 39.2 °F 33.0 °F 37.4 °F 93% 29.92 in 0.2 mi South 9.2 mph - N/A Fog Fog
1:48 AM 39.9 °F 34.5 °F 37.0 °F 89% 29.86 in 0.2 mi South 8.1 mph - N/A Fog Fog
1:53 AM 39.2 °F 34.2 °F 37.4 °F 93% 29.92 in 0.5 mi South 6.9 mph - N/A Fog Fog
2:02 AM 39.2 °F 35.0 °F 37.4 °F 93% 29.92 in 1.2 mi SSW 5.8 mph - N/A   Overcast
2:09 AM 39.2 °F 33.6 °F 37.4 °F 93% 29.92 in 0.5 mi South 8.1 mph - N/A Fog Fog
2:20 AM 39.2 °F 34.2 °F 37.4 °F 93% 29.92 in 0.2 mi SSW 6.9 mph - N/A Fog Fog
2:39 AM 39.2 °F 33.6 °F 37.4 °F 93% 29.91 in 0.2 mi South 8.1 mph - N/A Fog Fog
2:48 AM 39.9 °F 35.1 °F 37.0 °F 89% 29.86 in 0.2 mi SSW 6.9 mph - N/A Fog Fog
3:43 AM 39.2 °F 35.9 °F 35.6 °F 87% 29.90 in 0.8 mi SW 4.6 mph - N/A   Overcast
3:48 AM 39.0 °F 35.7 °F 36.0 °F 89% 29.85 in 1.5 mi SW 4.6 mph - N/A   Overcast
3:54 AM 39.2 °F 35.9 °F 35.6 °F 87% 29.90 in 3.0 mi SW 4.6 mph - N/A   Overcast
4:13 AM 39.2 °F 35.0 °F 35.6 °F 87% 29.90 in 1.0 mi WSW 5.8 mph - N/A   Mostly Cloudy
4:17 AM 39.2 °F 35.0 °F 35.6 °F 87% 29.91 in 0.5 mi WSW 5.8 mph - N/A Fog Fog
4:21 AM 39.2 °F 35.0 °F 35.6 °F 87% 29.91 in 0.2 mi SW 5.8 mph - N/A Fog Fog
4:32 AM 39.2 °F 35.9 °F 35.6 °F 87% 29.91 in 0.2 mi SSW 4.6 mph - N/A Fog Fog
4:48 AM 39.0 °F 36.8 °F 36.0 °F 89% 29.86 in 0.2 mi SW 3.5 mph - N/A Fog Fog
5:22 AM 37.4 °F 33.8 °F 35.6 °F 93% 29.91 in 0.8 mi West 4.6 mph - N/A   Overcast
5:24 AM 39.2 °F 35.9 °F 35.6 °F 87% 29.91 in 1.5 mi West 4.6 mph - N/A   Overcast
5:26 AM 39.2 °F 35.9 °F 35.6 °F 87% 29.91 in 4.0 mi West 4.6 mph - N/A   Overcast
5:48 AM 39.0 °F 35.7 °F 35.1 °F 86% 29.88 in 9.0 mi WSW 4.6 mph - N/A   Overcast
6:07 AM 39.2 °F 35.0 °F 35.6 °F 87% 29.91 in 10.0 mi WSW 5.8 mph - N/A   Overcast
6:44 AM 39.2 °F 37.0 °F 33.8 °F 81% 29.93 in 10.0 mi WNW 3.5 mph - N/A   Mostly Cloudy
6:48 AM 39.0 °F 34.8 °F 34.0 °F 82% 29.89 in 10.0 mi WNW 5.8 mph - N/A   Mostly Cloudy
7:48 AM 41.0 °F 34.7 °F 34.0 °F 76% 29.89 in 10.0 mi NW 10.4 mph - N/A   Overcast
8:27 AM 41.0 °F 32.8 °F 35.6 °F 81% 29.94 in 10.0 mi NNW 16.1 mph - N/A   Scattered Clouds
8:48 AM 42.1 °F 36.1 °F 35.1 °F 76% 29.91 in 10.0 mi NNW 10.4 mph - N/A   Clear
9:05 AM 42.8 °F 38.0 °F 35.6 °F 76% 29.96 in 10.0 mi NNW 8.1 mph 17.3 mph N/A   Mostly Cloudy
9:16 AM 42.8 °F 39.3 °F 35.6 °F 76% 29.96 in 10.0 mi NNW 5.8 mph 17.3 mph N/A   Overcast
9:44 AM 44.6 °F 40.2 °F 37.4 °F 76% 29.97 in 10.0 mi NNW 8.1 mph - N/A   Overcast
9:48 AM 44.1 °F 39.5 °F 37.0 °F 76% 29.92 in 10.0 mi NNW 8.1 mph - N/A   Overcast
9:54 AM 44.6 °F 39.7 °F 37.4 °F 76% 29.97 in 10.0 mi NNW 9.2 mph - N/A   Overcast
10:11 AM 46.4 °F 41.5 °F 37.4 °F 71% 29.97 in 10.0 mi NNW 10.4 mph - N/A   Mostly Cloudy
10:37 AM 46.4 °F 41.9 °F 37.4 °F 71% 29.98 in 10.0 mi NNW 9.2 mph - N/A   Mostly Cloudy
10:48 AM 46.9 °F - 37.0 °F 68% 29.93 in 10.0 mi North 10.4 mph 17.3 mph N/A   Overcast
11:48 AM 46.9 °F - 36.0 °F 66% 29.92 in 10.0 mi NNW 9.2 mph 16.1 mph N/A   Overcast
12:02 PM 48.2 °F - 35.6 °F 62% 29.97 in 10.0 mi North 4.6 mph - N/A   Overcast
12:06 PM 48.2 °F - 35.6 °F 62% 29.97 in 10.0 mi Variable 6.9 mph - N/A   Overcast
12:48 PM 48.9 °F - 37.0 °F 64% 29.91 in 10.0 mi Variable 3.5 mph - N/A   Mostly Cloudy
1:48 PM 48.0 °F - 37.0 °F 66% 29.90 in 10.0 mi NW 9.2 mph - N/A   Overcast
2:48 PM 46.9 °F - 36.0 °F 66% 29.90 in 10.0 mi NNW 8.1 mph - N/A   Overcast
3:48 PM 46.9 °F - 36.0 °F 66% 29.91 in 10.0 mi NNW 11.5 mph - N/A   Overcast
4:48 PM 46.0 °F 39.3 °F 35.1 °F 66% 29.91 in 10.0 mi NNW 16.1 mph - N/A   Overcast
5:48 PM 45.0 °F 38.5 °F 34.0 °F 65% 29.93 in 10.0 mi NNW 13.8 mph 17.3 mph N/A   Mostly Cloudy
6:48 PM 43.0 °F 37.2 °F 34.0 °F 71% 29.94 in 10.0 mi North 10.4 mph - N/A   Clear
7:48 PM 43.0 °F 36.4 °F 35.1 °F 74% 29.95 in 10.0 mi NW 12.7 mph - N/A   Partly Cloudy
8:48 PM 43.0 °F 37.7 °F 35.1 °F 74% 29.95 in 10.0 mi North 9.2 mph - N/A   Overcast
9:48 PM 44.1 °F 37.1 °F 35.1 °F 71% 29.96 in 10.0 mi NNW 15.0 mph 19.6 mph N/A   Overcast
9:52 PM 44.6 °F 41.4 °F 35.6 °F 71% 30.01 in 10.0 mi Variable 5.8 mph 19.6 mph N/A   Overcast
10:06 PM 44.6 °F 39.2 °F 35.6 °F 71% 30.02 in 10.0 mi NNW 10.4 mph - N/A   Overcast
10:48 PM 44.1 °F 36.8 °F 35.1 °F 71% 29.96 in 10.0 mi North 16.1 mph 20.7 mph N/A   Overcast
10:58 PM 44.6 °F 39.2 °F 35.6 °F 71% 30.02 in 10.0 mi North 10.4 mph 19.6 mph N/A   Overcast
11:09 PM 42.8 °F 36.2 °F 35.6 °F 76% 30.03 in 10.0 mi North 12.7 mph 16.1 mph N/A   Overcast
11:30 PM 42.8 °F 38.0 °F 35.6 °F 76% 30.03 in 10.0 mi North 8.1 mph - N/A   Overcast
11:48 PM 43.0 °F 38.8 °F 35.1 °F 74% 29.98 in 10.0 mi North 6.9 mph - N/A   Overcast